User: anonymous   Login
Location: Unspecified
(0.0000°N, 0.0000°E)
Time: 21:56:48
(UTC+00:00)
Language:

TBA - TO BE ASSIGNED - Orbit

View from above orbital plane
View from above orbital plane
View from above satellite
View from above satellite

Ground track
Ground track

The orbit is defined by the following mean orbital elements,

1 68998U          26145.26406869 +.00000000 +00000-0 +13350-3 0 00007
2 68998  97.7418  43.1589 0002743 127.4169 232.7300 14.91919370    05
Epoch (UTC): 25 May 2026 06:20:15
Eccentricity: 0.0002743
inclination: 97.7418°
perigee height: 590 km
apogee height: 594 km
right ascension of ascending node: 43.1589°
argument of perigee: 127.4169°
revolutions per day: 14.91919370
mean anomaly at epoch: 232.7300°

The dashed part of the orbit path shows where the satellite is in the earth's shadow,  

DLR